Wind_Speed
18 21 24 28 31 35 39 42 44 45 47 48 48 48 49 50 51 54 56 58 61 63 64 66 67 69 69 69 67 66 64 64 64 64 65 67 68 69 69 69 67 63 56 47
18 20 23 25 29 33 38 42 45 48 49 51 51 51 50 50 52 54 56 58 61 62 64 65 66 68 68 67 66 64 63 63 62 62 63 65 66 67 68 67 67 64 59 52
17 20 23 25 29 32 36 41 46 49 52 53 54 53 52 52 53 54 56 59 61 62 63 64 65 66 66 66 64 63 62 61 61 61 62 63 64 65 66 66 66 65 61 55
19 21 25 29 31 33 36 41 45 49 53 55 56 56 55 54 54 55 57 59 60 61 62 63 64 65 65 65 64 62 61 60 60 60 61 62 63 63 64 65 65 64 62 58
22 24 25 28 32 35 38 40 44 49 53 56 58 59 58 57 56 56 57 58 60 61 62 62 63 64 64 64 63 61 60 59 59 59 60 60 61 62 63 63 64 64 62 60
25 27 29 31 34 37 40 43 46 50 53 57 60 60 60 59 57 56 57 58 60 61 61 62 62 63 63 63 62 61 59 58 58 58 59 59 60 60 61 62 62 63 62 61
26 28 30 32 35 38 40 44 47 50 53 56 59 61 61 60 58 57 57 58 60 61 61 61 61 62 62 62 61 60 58 57 57 57 58 58 59 59 59 60 61 61 61 61
28 29 32 33 36 38 40 43 46 49 52 56 59 61 62 61 59 58 57 58 59 60 60 60 60 61 61 61 61 59 58 57 56 56 57 57 57 57 57 57 58 58 58 58
30 30 33 34 36 38 41 43 46 49 52 55 58 61 63 62 61 59 58 58 59 60 60 59 59 60 60 61 60 58 57 56 56 56 56 56 56 55 55 55 55 55 56 56
32 30 34 35 37 39 42 44 46 49 52 54 58 60 63 63 61 60 58 58 58 59 59 59 59 59 59 60 59 57 56 55 55 55 55 56 55 54 53 53 53 53 54 54
35 34 35 35 38 40 42 44 46 49 52 54 57 59 62 63 62 61 59 58 58 58 58 58 58 58 58 59 58 57 55 54 54 54 54 54 55 54 53 52 53 52 52 52
38 38 39 37 39 42 44 45 47 49 51 54 56 58 61 62 62 61 59 58 57 57 58 57 57 57 57 57 57 56 54 53 52 52 52 53 53 54 54 52 51 51 50 50
41 41 41 40 42 44 45 46 47 49 51 53 55 57 60 61 62 61 60 58 57 57 57 57 56 56 56 56 56 55 54 52 51 51 51 51 51 51 51 50 50 49 48 48
41 43 43 43 44 46 47 47 48 49 51 52 54 56 58 60 61 61 60 58 56 56 56 56 55 55 55 55 55 54 53 52 50 50 50 50 50 50 50 49 47 47 47 46
40 45 46 45 46 47 48 48 49 49 50 52 53 55 57 59 60 61 60 58 56 55 55 55 54 54 53 53 54 54 53 51 50 49 49 49 49 49 49 49 47 45 44 44
41 44 45 46 48 49 49 49 49 50 50 51 53 54 56 58 59 60 60 58 56 54 54 54 53 53 52 52 52 53 52 50 49 48 48 48 48 48 48 47 47 45 43 42
44 44 45 47 48 50 50 50 50 50 50 51 52 54 55 57 58 59 59 58 55 53 53 53 52 51 51 51 51 52 51 50 48 47 46 47 47 47 46 46 46 45 43 42
47 47 48 49 50 51 51 51 51 51 50 50 51 53 54 56 57 58 58 58 55 53 52 52 51 50 50 50 50 50 50 49 48 47 46 45 46 46 45 45 44 44 42 41
53 51 50 51 51 51 52 52 52 51 50 50 50 52 53 55 56 57 58 57 54 52 51 50 50 49 49 48 48 49 49 49 48 46 45 44 44 45 44 44 43 43 41 40
59 56 54 53 53 52 52 53 52 51 50 50 50 51 53 53 55 56 57 56 54 51 50 49 49 48 47 47 47 48 48 48 47 46 45 44 43 43 43 43 42 42 41 39
64 60 57 55 53 53 53 53 53 52 51 50 50 51 52 52 53 55 55 55 53 50 49 48 47 46 46 46 46 46 47 47 46 45 44 43 42 42 42 42 41 41 40 38
66 63 60 57 55 54 55 55 54 53 52 50 50 51 51 51 52 53 54 54 52 49 48 47 46 45 44 44 44 45 45 46 46 45 43 42 41 40 40 40 40 39 39 38
63 62 59 57 56 56 57 57 56 54 52 51 50 50 50 50 51 52 53 53 51 48 47 45 44 43 43 43 43 43 44 45 45 44 43 41 40 39 39 39 38 38 38 37
59 57 55 55 55 56 56 56 56 54 52 50 50 49 49 49 50 51 51 52 50 47 45 44 43 42 41 41 41 42 42 43 44 44 43 41 39 38 38 37 37 37 37 36
56 54 52 52 52 54 55 56 55 53 51 50 49 49 48 48 49 50 51 50 48 46 44 42 41 40 40 40 40 40 41 42 43 43 42 40 38 37 36 36 35 36 36 35
53 51 50 51 52 54 55 54 53 51 50 49 48 48 47 47 48 49 50 49 47 44 42 41 39 39 38 38 38 39 39 40 41 42 41 39 38 36 35 35 34 34 35 35
54 51 50 50 52 53 53 53 51 50 49 48 48 47 46 47 48 49 48 47 45 42 40 39 38 37 37 37 37 37 38 39 40 40 40 39 37 35 34 33 33 33 33 33
Wind_Direction
2 4 5 5 5 4 5 5 3 1 357 354 350 347 345 344 343 342 343 344 345 345 345 346 346 347 348 348 349 350 351 353 355 356 358 0 2 4 5 7 8 9 10 8
349 354 357 359 1 1 1 2 2 1 359 356 353 349 346 345 343 343 344 345 346 346 346 347 347 348 349 350 350 351 353 355 356 358 360 2 4 5 7 8 10 11 11 12
336 343 347 352 356 358 358 359 0 360 358 357 354 351 348 346 344 344 345 345 346 347 347 348 349 349 350 351 352 353 354 356 358 359 1 3 5 6 8 9 11 13 13 13
326 334 342 346 348 352 356 356 357 358 357 356 355 352 349 347 346 345 345 346 347 347 348 349 350 350 351 352 353 354 356 357 359 0 2 4 5 7 9 10 12 13 15 15
317 325 334 338 343 347 351 353 354 355 356 355 354 353 350 348 347 345 345 346 347 348 349 350 351 351 352 353 354 355 357 358 359 1 3 5 6 7 9 11 12 14 15 16
310 319 328 334 338 342 345 349 351 352 353 353 353 352 351 349 347 345 345 346 347 349 350 351 351 352 353 354 355 356 357 359 360 2 4 5 6 7 9 11 12 14 15 16
302 312 319 326 332 337 342 345 347 349 350 351 351 351 350 349 347 346 345 346 347 349 350 351 352 352 353 354 356 357 358 359 0 2 4 5 6 8 9 10 12 13 15 16
296 306 313 321 326 332 337 341 343 346 347 348 349 350 350 349 347 346 345 346 347 349 350 351 352 353 354 355 356 357 358 359 1 3 4 6 6 8 9 10 12 13 14 16
293 302 307 314 319 325 331 336 339 342 344 345 346 348 348 348 347 346 346 346 347 348 350 351 352 353 354 355 356 357 358 359 1 2 4 6 7 7 9 10 11 12 14 16
288 296 300 308 314 320 326 331 335 338 341 343 344 345 347 347 347 346 345 346 347 348 349 350 352 353 354 355 356 357 358 359 0 1 3 5 6 7 8 9 11 12 14 15
284 290 294 302 307 314 320 326 331 334 337 339 341 343 345 346 346 346 345 345 346 348 349 350 351 352 353 354 355 357 358 359 0 1 2 3 4 6 7 8 10 11 13 14
282 287 292 298 303 310 316 321 326 330 333 336 338 340 342 344 345 345 345 345 346 347 348 350 351 352 353 354 355 356 357 358 360 1 2 3 4 4 5 7 9 10 11 13
280 284 289 296 301 306 312 316 321 326 329 333 335 337 339 342 343 344 344 344 345 346 348 349 350 352 353 354 355 356 357 358 359 360 1 2 3 4 5 5 6 9 10 12
276 281 286 292 297 302 307 311 317 321 325 329 332 334 337 339 341 343 343 343 343 345 347 348 350 351 352 353 354 355 356 357 358 359 0 1 2 3 5 6 6 7 8 10
273 278 283 289 294 298 302 307 312 317 321 325 328 331 334 336 339 341 342 342 342 344 345 347 349 350 351 352 353 354 355 356 357 358 359 0 1 2 4 5 6 7 8 9
268 273 279 284 289 293 298 303 307 313 317 321 325 328 331 334 336 339 340 341 341 342 344 346 348 349 351 351 352 353 354 355 355 357 358 359 0 1 2 3 4 5 7 8
266 270 274 278 283 288 293 298 303 307 312 317 321 325 327 331 334 337 339 340 340 340 342 345 346 348 350 351 352 353 353 354 354 355 357 358 359 0 1 2 3 4 5 6
265 267 271 274 278 283 287 293 298 303 308 312 317 321 324 327 331 334 337 338 338 339 341 343 345 347 348 350 351 352 352 353 353 354 355 357 358 359 0 1 2 3 4 4
264 265 268 271 275 279 284 289 294 299 304 309 313 318 321 324 328 331 334 336 337 337 339 341 343 345 347 349 350 351 352 352 352 353 354 355 357 358 359 0 1 2 3 3
264 265 266 268 272 276 281 285 290 295 300 305 309 314 317 321 325 328 331 334 335 335 337 339 341 344 345 347 349 350 351 351 351 352 353 354 355 357 358 359 0 1 2 2
263 264 265 266 269 273 277 282 287 291 296 301 305 310 314 317 321 325 329 332 333 333 335 337 340 342 344 346 347 349 350 350 351 351 351 352 353 355 357 358 359 360 1 1
262 263 263 264 266 269 274 278 283 287 292 297 301 306 310 314 318 322 326 329 331 331 333 335 338 340 342 344 346 348 349 349 350 350 351 351 352 353 355 356 357 358 360 0
262 262 262 263 264 266 269 274 278 283 288 293 297 302 306 310 315 320 323 327 329 329 331 333 335 338 341 343 345 347 348 349 349 350 350 350 351 352 353 355 356 357 358 359
262 262 261 261 261 263 266 270 274 278 283 288 293 298 302 307 312 316 320 324 326 327 329 331 333 336 339 341 343 345 347 348 348 349 349 349 349 351 352 354 355 356 357 358
261 260 258 258 258 260 262 265 270 275 280 284 289 294 299 304 309 314 318 321 323 324 326 329 331 334 337 340 342 344 345 346 347 348 348 348 348 349 351 353 355 355 356 358
258 258 256 255 254 256 259 262 267 272 276 280 285 290 295 300 306 311 315 318 320 322 324 327 329 332 335 338 340 342 344 345 346 347 347 347 347 348 350 352 354 354 356 357
255 255 254 254 254 255 257 260 264 268 272 276 281 287 292 298 304 309 313 315 317 319 322 325 327 330 333 336 339 341 342 344 345 346 346 347 346 347 348 350 352 353 355 356
Height
5859 5855 5850 5845 5840 5833 5826 5819 5812 5805 5796 5787 5777 5767 5757 5747 5736 5725 5713 5701 5688 5674 5659 5644 5629 5613 5596 5580 5564 5549 5534 5518 5503 5487 5471 5455 5438 5421 5403 5386 5368 5352 5337 5324
5858 5854 5849 5845 5839 5832 5824 5817 5810 5801 5793 5783 5774 5763 5753 5742 5731 5720 5709 5696 5683 5669 5654 5640 5624 5609 5593 5577 5562 5547 5532 5517 5501 5486 5471 5456 5440 5423 5407 5390 5373 5357 5342 5329
5856 5851 5848 5843 5837 5830 5823 5814 5807 5798 5790 5780 5770 5759 5749 5738 5727 5716 5704 5692 5679 5665 5650 5636 5621 5606 5590 5575 5560 5545 5530 5515 5501 5486 5472 5457 5442 5427 5411 5395 5379 5363 5349 5335
5853 5850 5844 5841 5833 5827 5820 5812 5804 5795 5786 5776 5766 5755 5745 5734 5723 5712 5700 5688 5675 5661 5647 5632 5618 5603 5588 5573 5558 5544 5529 5515 5501 5487 5473 5458 5444 5430 5415 5400 5385 5370 5355 5341
5848 5844 5841 5836 5829 5822 5816 5810 5801 5792 5782 5773 5762 5752 5741 5730 5719 5707 5696 5684 5671 5657 5643 5629 5615 5600 5586 5572 5557 5543 5529 5515 5502 5488 5474 5460 5447 5433 5419 5405 5391 5377 5362 5349
5843 5838 5835 5832 5825 5817 5811 5804 5796 5787 5778 5769 5759 5749 5739 5726 5715 5703 5692 5680 5667 5654 5640 5626 5612 5598 5585 5570 5556 5543 5529 5516 5503 5489 5475 5462 5449 5436 5422 5409 5396 5382 5368 5355
5838 5833 5830 5826 5819 5813 5807 5801 5792 5783 5775 5766 5756 5746 5735 5723 5711 5699 5688 5676 5663 5650 5637 5624 5610 5597 5583 5569 5556 5542 5529 5517 5504 5490 5477 5464 5451 5438 5426 5413 5400 5387 5374 5362
5833 5830 5827 5821 5814 5809 5804 5796 5788 5780 5771 5762 5753 5742 5731 5719 5708 5696 5684 5673 5660 5648 5635 5622 5608 5595 5582 5569 5555 5542 5529 5517 5505 5492 5479 5466 5454 5442 5430 5418 5406 5394 5383 5370
5828 5827 5820 5815 5810 5805 5799 5792 5784 5776 5768 5759 5749 5739 5728 5716 5704 5693 5681 5669 5657 5645 5632 5619 5606 5593 5580 5567 5554 5541 5529 5517 5505 5493 5481 5469 5458 5446 5435 5423 5412 5401 5390 5378
5820 5820 5814 5809 5804 5799 5793 5786 5779 5772 5764 5755 5745 5735 5725 5713 5701 5690 5678 5666 5654 5642 5630 5617 5605 5592 5579 5566 5553 5541 5529 5517 5505 5494 5483 5471 5461 5450 5439 5428 5418 5407 5395 5384
5812 5811 5807 5805 5798 5793 5787 5781 5774 5767 5759 5750 5741 5732 5721 5709 5698 5686 5675 5663 5652 5640 5628 5616 5603 5591 5578 5565 5553 5541 5529 5517 5506 5495 5483 5472 5462 5452 5442 5431 5420 5410 5400 5390
5804 5802 5798 5797 5792 5787 5781 5775 5769 5762 5754 5746 5737 5727 5717 5706 5695 5683 5672 5660 5649 5637 5626 5614 5601 5589 5577 5565 5552 5541 5529 5518 5508 5497 5486 5475 5464 5453 5442 5433 5423 5413 5403 5394
5794 5792 5789 5787 5783 5778 5774 5768 5762 5756 5749 5741 5732 5723 5713 5703 5691 5680 5668 5657 5646 5635 5623 5612 5600 5588 5576 5564 5552 5541 5530 5519 5509 5499 5489 5478 5468 5458 5447 5436 5426 5417 5408 5399
5785 5782 5780 5778 5775 5771 5766 5761 5755 5749 5743 5735 5727 5718 5709 5698 5688 5676 5665 5654 5643 5632 5621 5610 5598 5586 5575 5563 5552 5541 5530 5520 5509 5499 5489 5479 5470 5460 5450 5441 5431 5422 5412 5403
5777 5772 5770 5769 5766 5762 5757 5752 5748 5742 5736 5729 5721 5713 5704 5694 5684 5673 5662 5651 5640 5629 5618 5607 5596 5585 5573 5562 5551 5540 5529 5519 5509 5499 5490 5480 5471 5461 5451 5442 5433 5425 5416 5407
5766 5763 5761 5759 5755 5752 5748 5744 5739 5734 5728 5722 5715 5707 5699 5690 5680 5669 5658 5647 5637 5626 5616 5605 5594 5583 5572 5561 5551 5540 5529 5519 5509 5500 5490 5481 5472 5463 5453 5444 5436 5427 5419 5411
5753 5752 5750 5748 5745 5742 5738 5735 5731 5726 5721 5715 5708 5701 5693 5684 5675 5665 5654 5644 5633 5623 5613 5602 5592 5581 5571 5560 5550 5539 5529 5519 5509 5500 5491 5482 5473 5464 5455 5446 5437 5429 5420 5413
5740 5739 5738 5736 5733 5731 5728 5725 5721 5717 5712 5707 5701 5694 5686 5678 5670 5660 5650 5640 5629 5619 5609 5599 5589 5579 5569 5559 5548 5538 5528 5518 5508 5499 5490 5482 5473 5464 5455 5447 5438 5430 5422 5414
5724 5724 5724 5722 5720 5718 5717 5714 5710 5707 5703 5698 5693 5687 5680 5672 5664 5655 5645 5635 5625 5615 5606 5596 5586 5576 5566 5557 5547 5537 5527 5517 5507 5498 5490 5481 5473 5464 5456 5447 5439 5431 5424 5416
5706 5707 5708 5708 5707 5706 5705 5702 5699 5696 5693 5688 5684 5678 5672 5665 5657 5649 5640 5630 5620 5611 5602 5592 5583 5573 5564 5554 5545 5535 5525 5515 5506 5497 5489 5481 5472 5464 5456 5448 5440 5432 5425 5417
5686 5688 5691 5692 5693 5693 5691 5689 5686 5684 5682 5678 5674 5669 5664 5658 5650 5642 5634 5625 5615 5606 5597 5588 5579 5570 5561 5551 5542 5533 5523 5514 5505 5496 5488 5480 5472 5464 5456 5448 5440 5433 5425 5418
5666 5669 5673 5676 5678 5678 5677 5675 5674 5672 5670 5667 5664 5660 5655 5649 5643 5635 5627 5619 5610 5601 5592 5583 5575 5566 5557 5548 5539 5530 5521 5512 5503 5495 5486 5478 5471 5463 5456 5448 5440 5433 5426 5419
5646 5650 5655 5660 5662 5663 5662 5661 5661 5659 5658 5656 5653 5650 5646 5640 5634 5627 5620 5612 5603 5595 5587 5579 5570 5562 5554 5545 5537 5528 5519 5510 5502 5493 5485 5477 5469 5462 5455 5447 5440 5433 5426 5419
5626 5632 5637 5641 5644 5646 5647 5647 5646 5646 5645 5644 5642 5639 5635 5631 5626 5619 5612 5604 5597 5588 5581 5573 5566 5558 5550 5542 5533 5525 5517 5508 5500 5491 5483 5475 5468 5461 5454 5446 5439 5432 5426 5419
5608 5614 5619 5623 5626 5628 5629 5630 5631 5632 5632 5631 5630 5628 5625 5621 5616 5610 5604 5596 5589 5582 5574 5567 5560 5553 5545 5538 5530 5522 5514 5506 5498 5489 5481 5473 5466 5459 5452 5445 5439 5432 5425 5418
5590 5596 5601 5605 5608 5610 5612 5615 5617 5618 5618 5618 5617 5616 5613 5610 5606 5601 5595 5588 5581 5575 5568 5561 5555 5548 5540 5533 5526 5518 5510 5503 5495 5487 5479 5471 5464 5457 5451 5444 5438 5431 5424 5418
5572 5579 5584 5588 5591 5594 5597 5600 5602 5604 5605 5605 5605 5604 5602 5599 5596 5591 5585 5579 5573 5567 5561 5555 5548 5542 5535 5528 5521 5514 5507 5499 5492 5484 5477 5469 5462 5455 5449 5443 5436 5430 5424 5417